Well Details
Well Information

03721358

Fernando Fee

32B

Los Angeles [037]

2

Southern California Gas Company [S4700]

Aliso Canyon [010]

Any Area [00]

27

03N

16W

SB

Active

GS, OG

6/29/1973

gps

83

34.313231

-118.539936

map

Well Records

File Name Type Size Modified on
 
 03721358 Data_03-20-08.pdf PDF 44.00 MB 10/16/2017
 03721358_FF 32B_PTEST_02-02-2017.xls Excel 219.00 KB 2/3/2017
 03721358_FF 32B_MAC_01-26-2017.PDF PDF 2.00 MB 1/31/2017
 03721358 Temp_9-13-04.pdf PDF 37.00 KB 1/27/2017
 03721358 Temp-Noise_11-03-05.pdf PDF 212.00 KB 1/27/2017
 03721358 Temp_11-13-01.pdf PDF 52.00 KB 1/27/2017
 03721358 Temp_11-3-95.pdf PDF 141.00 KB 1/27/2017
 03721358 Temp_10-29-97.pdf PDF 132.00 KB 1/27/2017
 03721358 Temp_8-27-96.pdf PDF 169.00 KB 1/27/2017
 03721358 Temp_8-22-06.pdf PDF 39.00 KB 1/27/2017
 03721358 Temp_8-11-04.pdf PDF 36.00 KB 1/27/2017
 03721358 Sidewall Neut_8-4-73.pdf PDF 252.00 KB 1/27/2017
 03721358 Sidewall Neut_7-22-73.pdf PDF 97.00 KB 1/27/2017
 03721358 Sandstone Analysis_9-11-73.pdf PDF 5.00 MB 1/27/2017
 03721358 Pressure_8-22-06.pdf PDF 43.00 KB 1/27/2017
 03721358 Neutron_9-14-73.pdf PDF 228.00 KB 1/27/2017
 03721358 Micro-Seism_7-7-73.pdf PDF 162.00 KB 1/27/2017
 03721358 IEL_8-4-73.pdf PDF 358.00 KB 1/27/2017
 03721358 IEL_7-24-73.pdf PDF 425.00 KB 1/27/2017
 03721358 CompNeuDens_9-8-73.pdf PDF 674.00 KB 1/27/2017
 03721358 CompDens_8-4-73.pdf PDF 442.00 KB 1/27/2017
 03721358 CompDens_7-22-73.pdf PDF 116.00 KB 1/27/2017
 03721358 CompAcstic Velocity_7-22-73.pdf PDF 163.00 KB 1/27/2017
 03721358 Comp Acstic Velocity_8-4-73.pdf PDF 167.00 KB 1/27/2017
 03721358 Collar Recrd_7-5-73.pdf PDF 287.00 KB 1/27/2017
 03721358 CBL_8-10-73.pdf PDF 953.00 KB 1/27/2017
 03721358 Caliper_8-10-73.pdf PDF 1.00 MB 1/27/2017
 03721358 Caliper_7-22-73.pdf PDF 251.00 KB 1/27/2017
 03721358 Caliper_7-5-73.pdf PDF 266.00 KB 1/27/2017
 03721358 Comptr Analysis_8-4-73.pdf PDF 129.00 KB 1/26/2017
 03721358 Vertilog_12-29-16.pdf PDF 6.00 MB 1/25/2017
 03721358 Vertilog_12-29-16.tif TIF 18.00 MB 1/25/2017
 03721358_FF 32B_PTEST_01-24-2017.xls Excel 128.00 KB 1/24/2017
 03721358_FF 32B_PTEST_01-12-2017.xls Excel 1.00 MB 1/20/2017
 03721358 56-Arm Caliper_01-05-17(multple pgs).pdf PDF 11.00 MB 1/11/2017
 03721358_FF_32B_MAC_01-05-2017.PDF PDF 11.00 MB 1/11/2017
 03721358 CsgInsp_12-29-16.pdf PDF 12.00 MB 1/10/2017
 03721358_FF 32B_CsgInsp_12-29-2016.PDF PDF 12.00 MB 1/10/2017
 03721358 CBL_03-01-17.pdf PDF 14.00 MB 1/10/2017
 03721358_FF 32B_CBL_01-03-2017.pdf PDF 14.00 MB 1/10/2017
 03721358 USIT_01-03-17.pdf PDF 30.00 MB 1/10/2017
 03721358_FF 32B_USIT_01-03-2017.pdf PDF 30.00 MB 1/10/2017
 03721358 FF 32B.csv csv 21.00 KB 1/10/2017
 03721358 FERNANDO FEE 32B.sds sds 729 B 1/10/2017
 03721358 FERNANDO FEE 32B.hed hed 210.00 KB 1/10/2017
 03721358 CsgInsp_12-29-16.xlsx Excel 62.00 KB 1/10/2017
 03721358_FF 32B_CsgInsp_12-29-2016.xlsx Excel 62.00 KB 1/10/2017
 03721358 USIT_01-03-17.xls Excel 149.00 KB 1/10/2017
 03721358_FF 32B_USIT_01-03-2017.xls Excel 149.00 KB 1/10/2017
 03721358 PTEST_08-11-16.xls Excel 62.00 KB 8/23/2016
 03721358_FF 32B_PTEST_08-11-2016.xls Excel 62.00 KB 8/23/2016
 03721358 Valve Testng.pdf PDF 254.00 KB 8/8/2016
 03721358.pdf PDF 254.00 KB 8/8/2016
 03721358 CompDens_7-22-73.tif TIF 178.00 KB 8/3/2016
 03721358_Compensated Density Log_7-22-1973.tif TIF 178.00 KB 8/3/2016
 03721358 Temp-Noise_11-03-05.tif TIF 300.00 KB 8/3/2016
 03721358_Temperature and Noise Log_11-3-2005.tif TIF 300.00 KB 8/3/2016
 03721358 Neutron_9-14-73.tif TIF 365.00 KB 8/3/2016
 03721358_Neutron Log_9-14-1973.tif TIF 365.00 KB 8/3/2016
 03721358 Sandstone Analysis_9-11-73.tif TIF 23.00 MB 8/3/2016
 03721358_Saraband A Sandstone Analysis_9-11-1973.tif TIF 23.00 MB 8/3/2016
 03721358 CBL_8-10-73.tif TIF 1.00 MB 8/3/2016
 03721358_Cement Bond Log Sonic Spectrum_8-10-1973.tif TIF 1.00 MB 8/3/2016
 03721358 CompAcstic Velocity_7-22-73.tif TIF 270.00 KB 8/3/2016
 03721358_Compensated Acoustic Velocity Log_7-22-1973.tif TIF 270.00 KB 8/3/2016
 03721358 Caliper_8-10-73.tif TIF 2.00 MB 8/3/2016
 03721358_Casing Profile Calipeer Log_8-10-1973.tif TIF 2.00 MB 8/3/2016
 03721358 IEL_8-4-73.tif TIF 525.00 KB 8/3/2016
 03721358_Induction Electric Log_8-4-1973.tif TIF 525.00 KB 8/3/2016
 03721358 Sidewall Neut_7-22-73.tif TIF 145.00 KB 8/3/2016
 03721358_Sidewall Neutron Log_7-22-1973.tif TIF 145.00 KB 8/3/2016
 03721358 CompDens_8-4-73.tif TIF 643.00 KB 8/3/2016
 03721358_Comp[ensated Density Log_8-4-1973.tif TIF 643.00 KB 8/3/2016
 03721358 Comp Acstic Velocity_8-4-73.tif TIF 242.00 KB 8/3/2016
 03721358_Comp[ensated Acoustic Velocity Log_8-4-1973.tif TIF 242.00 KB 8/3/2016
 03721358 Comptr Analysis_8-4-73.tif TIF 184.00 KB 8/3/2016
 03721358_CAL_8-4-1973.tif TIF 184.00 KB 8/3/2016
 03721358 Sidewall Neut_8-4-73.tif TIF 362.00 KB 8/3/2016
 03721358_Sidewall Neutron Log_8-4-1973.tif TIF 362.00 KB 8/3/2016
 03721358 IEL_7-24-73.tif TIF 711.00 KB 8/3/2016
 03721358_Induction Electric Log_7-24-1973.tif TIF 711.00 KB 8/3/2016
 03721358 Caliper_7-22-73.tif TIF 475.00 KB 8/3/2016
 03721358_Caliper Log_7-22-1973.tif TIF 475.00 KB 8/3/2016
 03721358 Caliper_7-5-73.tif TIF 403.00 KB 8/3/2016
 03721358_Caliper Log_7-5-1973.tif TIF 403.00 KB 8/3/2016
 03721358 Collar Recrd_7-5-73.tif TIF 434.00 KB 8/3/2016
 03721358_Collar Record_7-5-1973.tif TIF 434.00 KB 8/3/2016
 03721358 Micro-Seism_7-7-73.tif TIF 230.00 KB 8/3/2016
 03721358_Micro Seismograph Log Cased Hole_7-7-1973.tif TIF 230.00 KB 8/3/2016
 03721358 Temp_03-09-16.pdf PDF 716.00 KB 3/23/2016
 03721358_Temp_03-09-2016.pdf PDF 716.00 KB 3/23/2016
 03721358 Noise_03-09-16.pdf PDF 2.00 MB 3/14/2016
 03721358_Noise_03-09-2016.pdf PDF 2.00 MB 3/14/2016
 03721358 Noise_03-09-16.las Text 1.00 MB 3/14/2016
 03721358_Noise_03-09-2016.las Text 1.00 MB 3/14/2016
 03721358 Temp_09-11-15.pdf PDF 593.00 KB 9/16/2015
 03721358 Temp_09-29-14.pdf PDF 191.00 KB 11/3/2014
 03721358 Temp_09-09-13.pdf PDF 263.00 KB 9/13/2013
 03721358 Temp_09-03-13.pdf PDF 274.00 KB 9/13/2013
 03721358 Temp_10-03-12.pdf PDF 83.00 KB 10/12/2012
 03721358 Temp_08-04-11.pdf PDF 95.00 KB 3/15/2012
 03721358 GR-Neu_2-15-06.tif TIF 1.00 MB 11/20/2011
 03721358 Temp_08-10-10.pdf PDF 40.00 KB 8/18/2010
 03721358 Temp_09-18-09.pdf PDF 151.00 KB 9/22/2009
 03721358 Temp_8-22-06.tif TIF 62.00 KB 6/23/2009
 03721358 Temp_9-13-04.tif TIF 59.00 KB 6/23/2009
 03721358 Temp_8-11-04.tif TIF 58.00 KB 6/23/2009
 03721358 Pressure_8-22-06.tif TIF 68.00 KB 6/23/2009
 03721358 Temp_11-3-95.tif TIF 198.00 KB 2/18/2009
 03721358 Temp_8-27-96.tif TIF 223.00 KB 2/18/2009
 03721358 Temp_11-13-01.tif TIF 73.00 KB 2/18/2009
 03721358 Press-Temp_09-08-08.pdf PDF 43.00 KB 9/18/2008
 03721358 Temp_10-29-97.tif TIF 163.00 KB 8/2/2008
 03721358 CompNeuDens_9-8-73.tif TIF 946.00 KB 8/12/2007
 03721358 DILL_9-8-73.pdf PDF 242.00 KB 5/21/2007
 03721358 DILL_9-8-73.tif TIF 265.00 KB 5/18/2007
 03721358 GR-Neu_2-15-06.pdf PDF 984.00 KB 4/3/2007


Production Data


Date Oil(bbl) Water(bbl) Gas(Mcf) Days Producing Gravity Csg Tbg BTU MO Disp PWT Status Well Type Status Pool Code Sum Row
Date Oil(bbl) Water(bbl) Gas(Mcf) Days Producing Gravity Csg Tbg BTU MO Disp PWT Status Well Type Status Pool Code Sum Row


Injection Data


Date Water/Steam(bbl) Gas/Air(Mcf) Days Injecting Pressure Water Source Water Kind PWT Status Well Type Status Pool Code Sum Row
Date Water/Steam(bbl) Gas/Air(Mcf) Days Injecting Pressure Water Source Water Kind PWT Status Well Type Status Pool Code Sum Row



Production Charts



Injection Charts